Simultaneous Nadir Overpasses (SNOs) Predictions

Prediction of SNOs between GOES-17 and NOAA-19 Satellite Orbit:

Table of predicted SNOs for the next 14.0 days since TLE Epoch: 9/3/2022
Index Date Time (GOES-17) GOES-17 Lat,Lon NOAA-19 Lat,Lon Distance(km) Time Diff (sec)
1 09/03/2022 17:20:23 -0.02,-137.31 0.73,-140.66 381.13 80
2 09/04/2022 17:08:30 -0.02,-137.31 0.08,-137.76 50.80 80
3 09/05/2022 16:59:18 -0.02,-137.31 -0.56,-134.86 279.28 80
4 09/08/2022 05:17:11 0.03,-137.29 -0.53,-139.73 278.41 80
5 09/09/2022 05:07:58 0.03,-137.29 0.13,-136.84 51.47 80
6 09/10/2022 04:56:06 0.03,-137.28 0.79,-133.94 381.36 80
7 09/12/2022 17:13:58 -0.04,-137.27 0.30,-138.81 175.52 80
8 09/13/2022 17:04:45 -0.03,-137.26 -0.36,-135.91 154.13 80
9 09/14/2022 16:52:53 -0.03,-137.25 -1.01,-133.01 483.61 80
10 09/16/2022 05:22:36 0.04,-137.23 -0.76,-140.77 403.97 80
